[Date Prev][Date Next][Thread Prev][Thread Next] - [Date Index][Thread Index][Author Index]
2 Line ISS Keps 11-12
- Subject: [sarex] 2 Line ISS Keps 11-12
- From: "Dave Larsen PhD" <doc@xxxxxxxxxxx>
- Date: Fri, 12 Nov 2004 02:33:59 -0800
ISS
1 25544U 98067A 04317.18837963 .00050933 00000-0 40135-3 0 1202
2 25544 51.6360 290.5142 0007815 349.5893 193.4036 15.70883593341562
----
Via the sarex mailing list at AMSAT.ORG courtesy of AMSAT-NA.
To unsubscribe, send "unsubscribe sarex" to Majordomo@amsat.org
AMSAT Home